Regional Weather Roundup
Issued by NWS Grand Forks, ND

Home | Current Version | Previous Version | Text Only | Print | Product List | Glossary Off
Versions: 1 2 3 4 5 6 7 8 9 10 11 12 13 14 15 16 17 18 19 20 21 22 23 24 25 26 27 28 29 30 31 32 33 34 35 36 37 38 39 40 41 42 43 44 45 46 47 48 49 50

000
ASUS43 KFGF 291731
RWRFGF
PRAIRIE TO PINES  WEATHER ROUNDUP
NATIONAL WEATHER SERVICE EASTERN NORTH DAKOTA/GRAND FORKS ND
1200 PM CDT FRI JUL 29 2016

 **SATELLITE DATA USED TO AUGMENT SKY COVER AT AUTOMATED STATIONS**
 *****  WEATHER ACROSS EASTERN NORTH DAKOTA  *****

CITY           SKY/WX    TMP DP  RH WIND       PRES   REMARKS
GRAND FORKS    CLOUDY    75  56  51 N7        30.08S
GRAND FRKS AFB CLOUDY    74  56  53 E5        30.09S
DEVILS LAKE    PTSUNNY   73  59  61 SW6       30.10S
FARGO          CLOUDY    76  58  53 N3        30.08S
WAHPETON ARPT  MOSUNNY   75  61  60 W5        30.09S
$$

 ***** WEATHER ACROSS CENTRAL AND WESTERN NORTH DAKOTA  *****

CITY           SKY/WX    TMP DP  RH WIND       PRES   REMARKS
BISMARCK       PTSUNNY   78  59  51 CALM      30.08F
MINOT          MOSUNNY   78  60  53 E8        30.07F
JAMESTOWN      SUNNY     74  60  61 S8        30.09F
MINOT AFB      PTSUNNY   74  60  61 S10       30.06F
GARRISON         N/A     73  61  65 W3        30.07F
WILLISTON      SUNNY     75  54  47 MISG      30.07F
DICKINSON      PTSUNNY   69  58  67 S7        30.08F
HETTINGER      PTSUNNY   75  56  51 VRB5      30.11F
$$

 *****  OTHER AIRPORT OBSERVATIONS IN OUR AREA  *****

CITY           SKY/WX    TMP DP  RH WIND       PRES   REMARKS
WALHALLA       FAIR      73  70  88 CALM      30.08S
GRAFTON AIRPOR FAIR      73  57  56 VRB3      30.10S
VALLEY CITY AR FAIR      73  59  60 NE6       30.12S
CANDO          PTSUNNY   73  61  64 S3        30.11F
CAVALIER APRT  FAIR      73  55  53 CALM      30.08S
GWINNER        FAIR      75  63  64 CALM      30.10S
SHEYENNE NWR     N/A     78  57  48 NE3       29.95S
ROLLA            N/A     72  54  53 SW5       30.10F
 ***** THE ABOVE OBSERVATIONS ARE NON NWS ARE NOT QUALITY
       CONTROLLED AND MAY MIS-REPORT RAIN FOR SNOW...
$$

  *****  WEATHER ACROSS NORTHERN MINNESOTA  *****

CITY           SKY/WX    TMP DP  RH WIND       PRES   REMARKS
FLAG ISLAND    SUNNY     73  50  43 CALM      30.08S
WARROAD        SUNNY     73  64  73 NE5       30.09S
ROSEAU         SUNNY     75  61  60 CALM      30.08F
HALLOCK        MOSUNNY   73  55  53 CALM      30.07F
THF RVR FALLS  SUNNY     74  55  51 N5        30.10S
BAUDETTE       SUNNY     77  54  44 SE5       30.08S
WASKISH        SUNNY     75  64  69 W7        30.08F
CROOKSTON      MOSUNNY   73  55  53 CALM      30.09S
STEPHEN NDAWN    N/A     73  59  60 N2          N/A
GREENBUSH NDAW   N/A     75  54  46 SE2         N/A
$$
  *****  WEATHER ACROSS CENTRAL AND WEST MINNESOTA  *****

CITY           SKY/WX    TMP DP  RH WIND       PRES   REMARKS
FOSSTON        SUNNY     73  55  53 CALM      30.10S
BEMIDJI        PTSUNNY   72  55  56 W3        30.09F
PARK RAPIDS    MOSUNNY   76  57  51 S10       30.10S
ELBOW LAKE     PTSUNNY   75  61  61 S6        30.11S
WADENA         MOSUNNY   75  59  57 CALM      30.10F
DETROIT LAKES  MOSUNNY   73  61  64 W7        30.10F
MOORHEAD       CLOUDY    75  57  53 N3        30.09S
FERGUS FALLS   PTSUNNY   75  63  64 SW8       30.10S
MORRIS MN      MOSUNNY   79  59  50 SE7       30.10S
STAPLES        MOSUNNY   73  55  53 S5        30.11S
$$
  *****  WEATHER ELSEWHERE ACROSS MINNESOTA  *****

CITY           SKY/WX    TMP DP  RH WIND       PRES   REMARKS
DULUTH         MOSUNNY   70  52  52 SE12      30.12S
INTRNTL FALLS  CLOUDY    73  56  54 E3        30.08F
ELY            SUNNY     73  48  40 SE6       30.11S
CLOQUET        SUNNY     70  46  43 E7        30.12S
WHEATON        MOSUNNY   75  64  69 S7        30.12R
BRAINERD       PTSUNNY   72  53  51 E7        30.11S
HIBBING        MOSUNNY   71  52  50 E8        30.11S
ALEXANDRIA     SUNNY     73  56  54 VRB5      30.13S
SAINT CLOUD    MOSUNNY   72  54  53 N5        30.11S
MINNEAPOLIS    MOSUNNY   74  51  44 N8        30.08S
$$

  *****  WEATHER ACROSS SOUTH DAKOTA  *****

CITY           SKY/WX    TMP DP  RH WIND       PRES   REMARKS
SIOUX FALLS    MOSUNNY   74  58  57 NE9       30.10F
BROOKINGS      SUNNY     73  56  54 E7        30.12S
WATERTOWN      CLOUDY    75  55  49 VRB5      30.12R
HURON          MOSUNNY   77  54  44 E8        30.10S
SISSETON         N/A     75  62  64 VRB6      30.09S
ABERDEEN       NOT AVBL
MITCHELL       SUNNY     76  56  49 VRB6      30.11S
PIERRE         MOSUNNY   76  60  57 SE10      30.08S
MOBRIDGE       CLOUDY    79  58  48 S7        30.06S
RAPID CITY     SUNNY     76  58  53 SE12      30.11S
$$

  *****  SOME WEATHER IN NEARBY STATES *****

CITY           SKY/WX    TMP DP  RH WIND       PRES   REMARKS
GLASGOW MT     CLOUDY    73  60  63 S8        30.05F
GREAT FALLS MT SUNNY     73  54  51 VRB3      30.11F
CHEYENNE WY    SUNNY     73  57  57 VRB5      30.24R
SCOTTSBLUFF NE SUNNY     77  58  51 SE8       30.14F
OMAHA NE       PTSUNNY   78  62  57 N8        30.05F
DES MOINES IA  CLOUDY    70  63  78 NW7       30.01R
DAVENPORT IA   CLOUDY    77  69  76 N6        29.96S
CHICAGO IL     PTSUNNY   80  69  69 NE10      29.93F
EAU CLAIRE WI  SUNNY     73  51  46 CALM      30.05F
LA CROSSE WI   CLOUDY    74  62  66 NW5       30.02F
$$

  *****  SOME NATIONAL WEATHER *****

CITY           SKY/WX    TMP DP  RH WIND       PRES   REMARKS
LA GUARDIA NY  MOSUNNY   79  67  66 NE16      29.84F
RALEIGH NC     MOSUNNY   88  69  53 NW8       29.92S HX  92
ATLANTA GA     PTSUNNY   89  70  53 W10       30.05S HX  94
NEW ORLEANS LA TSTM      87  77  72 NE7       30.05F HX  99
OKLAHOMA CITY  CLOUDY    75  69  81 W8        30.00F
ALBUQUERQUE NM MOSUNNY   87  52  29 SE14G26   30.18F
SALT LAKE CITY MOSUNNY   90  41  18 SE5       30.05F
LOS ANGELES CA SUNNY     75  65  70 W7        29.84F
BOISE ID       SUNNY     84  44  24 W6        29.99F
SEATTLE WA     SUNNY     74  60  61 W5        30.02F
$$

*** WEATHER ACROSS MANITOBA...SASKATCHEWAN AND ONTARIO ***
                ***ONTARIO***

CITY           SKY/WX    TMP DP  RH WIND       PRES   REMARKS
GERALDTON      MOSUNNY   72  48  43 SW6       30.10F
THUNDER BAY    MOSUNNY   73  57  56 VRB6      30.09F
SIOUX LOOKOUT  PTSUNNY   73  52  46 VRB5      30.09F
TORONTO        PTSUNNY   77  57  50 SE6       29.98S
BIG TROUT LK   CLOUDY    66  57  72 CALM      30.01F
PICKLE LAKE    MOSUNNY   77  48  36 VRB3      30.06S
DRYDEN         SUNNY     75  50  41 VRB3      30.09F
KENORA         PTSUNNY   73  52  46 VRB5      30.09
$$
                *** MANITOBA***

CITY           SKY/WX    TMP DP  RH WIND       PRES   REMARKS
BRANDON        PTSUNNY   75  57  53 W8        30.07F
DAUPHIN        SUNNY     79  57  47 W10       30.02F
ISLAND LAKE    MOSUNNY   77  61  57 S3        29.99S
PILOT MOUND      N/A     72  55  56 SW3         N/A
THE PAS        CLOUDY    68  59  73 W2        29.96S
THOMPSON       PTSUNNY   66  59  77 SE3       29.96F
WINNIPEG       MOSUNNY   73  57  56 S6        30.07F
LYNN LAKE      CLOUDY    64  61  88 MISG      29.94S
CHURCHILL      MOSUNNY   64  43  45 NE5       30.06F
GILLAM         PTSUNNY   66  50  55 E7        30.03F
$$
                ***SASKATCHEWAN***

CITY           SKY/WX    TMP DP  RH WIND       PRES   REMARKS
ESTEVAN        CLOUDY    73  55  53 W7        30.06F
KINDERSLEY     MOSUNNY   72  61  68 W7        30.01F
LLOYDMINSTER   MOSUNNY   72  59  64 SW5       29.98F
PRINCE ALBERT  LGT RAIN  68  63  83 VRB2      29.95F
REGINA         PTSUNNY   73  59  60 SW7       30.02F
YORKTON        SUNNY     75  57  53 SW9       30.02F
N. BATTLEFORD  NOT AVBL
LA RONGE       PTSUNNY   70  61  73 S6        29.91F
SASKATOON      PTSUNNY   66  63  88 SW6       30.00S
SWIFT CURRENT  SUNNY     70  59  68 W6        30.03F
$$
NOTE: THESE ARE AUTOMATED STATIONS WITH LIMITED QUALITY CONTROL
      "FAIR" INDICATES FEW OR NO CLOUDS BELOW 12,000 FEET WITH NO
      SIGNIFICANT WEATHER AND/OR OBSTRUCTIONS TO VISIBILITY.
      SKY/WX - SKY CONDITION AND SIGNIFICANT WEATHER.
      TMP - AIR TEMPERATURE.    DP   - DEWPOINT TEMPERATURE.
      RH  - RELATIVE HUMIDITY.  PRES - PRESSURE.
      HX  - HEAT INDEX.         WCI  - WIND CHILL INDEX.
$



USA.gov is the U.S. government's official web portal to all federal, state and local government web resources and services.